Weather History for Brunswick, GA

Change the Weather History Date:

Monday, November 4, 2013

  Actual Average Record
Temperature  
Mean Temperature 60 °F -  
Max Temperature 68 °F 76 °F 136 °F (2004)
Min Temperature 51 °F 56 °F 32 °F (1999)
Degree Days  
Heating Degree Days 6    
Growing Degree Days 10 (Base 50)    
Moisture  
Dew Point 51 °F    
Average Humidity 73    
Maximum Humidity 82    
Minimum Humidity 60    
Precipitation  
Precipitation 0.00 in - - ()
Sea Level Pressure  
Sea Level Pressure 30.31 in    
Wind  
Wind Speed 10 mph (NNE)    
Max Wind Speed 22 mph    
Max Gust Speed 33 mph    
Visibility 10 miles    
Events      
Averages and records for this station are not official NWS values.
T = Trace of Precipitation, MM = Missing Value Source: NWS Daily Summary

Daily Weather History Graph

Daily Weather History Graph

Search for Another Location

Airport:

Trip Planner

Search our weather history database for the weather conditions in past years. The results will help you decide how hot, cold, wet, or windy it might be!

Date:

Astronomy

Nov. 04, 2013 Rise Set
Actual Time 6:44 AM EST 5:34 PM EST
Civil Twilight 6:18 AM EST 5:59 PM EST
Nautical Twilight 5:50 AM EST 6:28 PM EST
Astronomical Twilight 5:21 AM EST 6:56 PM EST
Moon 7:49 AM EST (11/4) 6:42 PM EST (11/4)
Length of Visible Light 11h 40m
Length of Day
10h 50m
New Moon, 2% of the Moon is Illuminated
Nov 4
New Moon
Nov 10
First Quarter
Nov 17
Full
Nov 25
Last Quarter
Dec 2
New

Hourly Weather History & Observations

Time (EST) Temp. Dew Point Humidity Pressure Visibility Wind Dir Wind Speed Gust Speed Precip Events Conditions
12:15 AM 53.6 °F 46.4 °F 77% 30.25 in 10.0 mi North 5.8 mph - N/A   Clear
12:35 AM 53.6 °F 46.4 °F 77% 30.26 in 10.0 mi North 5.8 mph - N/A   Clear
12:55 AM 53.6 °F 46.4 °F 77% 30.26 in 10.0 mi NNW 5.8 mph - N/A   Clear
1:15 AM 53.6 °F 46.4 °F 77% 30.26 in 10.0 mi North 4.6 mph - N/A   Clear
1:35 AM 51.8 °F 46.4 °F 82% 30.26 in 10.0 mi North 4.6 mph - N/A   Clear
1:55 AM 53.6 °F 46.4 °F 77% 30.26 in 10.0 mi North 5.8 mph - N/A   Clear
2:15 AM 53.6 °F 46.4 °F 77% 30.26 in 10.0 mi NNW 5.8 mph - N/A   Clear
2:35 AM 53.6 °F 46.4 °F 77% 30.27 in 10.0 mi North 5.8 mph - N/A   Clear
2:55 AM 53.6 °F 46.4 °F 77% 30.27 in 10.0 mi North 6.9 mph - N/A   Clear
3:15 AM 51.8 °F 46.4 °F 82% 30.27 in 10.0 mi North 5.8 mph - N/A   Scattered Clouds
3:35 AM 53.6 °F 46.4 °F 77% 30.27 in 10.0 mi North 6.9 mph - N/A   Scattered Clouds
3:55 AM 51.8 °F 46.4 °F 82% 30.28 in 10.0 mi North 9.2 mph - N/A   Scattered Clouds
4:15 AM 51.8 °F 46.4 °F 82% 30.28 in 10.0 mi North 9.2 mph - N/A   Clear
4:35 AM 51.8 °F 46.4 °F 82% 30.28 in 10.0 mi North 6.9 mph - N/A   Clear
4:55 AM 51.8 °F 46.4 °F 82% 30.29 in 10.0 mi North 6.9 mph - N/A   Clear
5:15 AM 51.8 °F 46.4 °F 82% 30.29 in 10.0 mi North 5.8 mph - N/A   Clear
5:35 AM 51.8 °F 46.4 °F 82% 30.29 in 10.0 mi North 5.8 mph - N/A   Clear
5:55 AM 51.8 °F 46.4 °F 82% 30.29 in 10.0 mi North 9.2 mph - N/A   Clear
6:15 AM 51.8 °F 46.4 °F 82% 30.29 in 10.0 mi North 6.9 mph - N/A   Clear
6:35 AM 51.8 °F 46.4 °F 82% 30.29 in 10.0 mi North 6.9 mph - N/A   Clear
6:55 AM 51.8 °F 46.4 °F 82% 30.29 in 10.0 mi North 6.9 mph - N/A   Clear
7:15 AM 51.8 °F 46.4 °F 82% 30.29 in 10.0 mi North 8.1 mph - N/A   Clear
7:35 AM 53.6 °F 48.2 °F 82% 30.31 in 10.0 mi North 8.1 mph - N/A   Clear
7:55 AM 53.6 °F 48.2 °F 82% 30.32 in 10.0 mi North 8.1 mph - N/A   Clear
8:15 AM 55.4 °F 50.0 °F 82% 30.31 in 10.0 mi NNE 6.9 mph - N/A   Clear
8:35 AM 59.0 °F 51.8 °F 77% 30.31 in 10.0 mi NNE 9.2 mph - N/A   Clear
8:55 AM 60.8 °F 51.8 °F 72% 30.31 in 10.0 mi NNE 10.4 mph - N/A   Clear
9:15 AM 62.6 °F 53.6 °F 72% 30.32 in 10.0 mi NNE 13.8 mph 17.3 mph N/A   Clear
9:35 AM 62.6 °F 55.4 °F 77% 30.33 in 10.0 mi NNE 10.4 mph - N/A   Mostly Cloudy
9:55 AM 64.4 °F 57.2 °F 77% 30.33 in 10.0 mi NNE 12.7 mph 19.6 mph N/A   Mostly Cloudy
10:15 AM 66.2 °F 57.2 °F 73% 30.33 in 10.0 mi NNE 13.8 mph 24.2 mph N/A   Scattered Clouds
10:35 AM 66.2 °F 57.2 °F 73% 30.34 in 10.0 mi NNE 16.1 mph 23.0 mph N/A   Scattered Clouds
10:55 AM 68.0 °F 57.2 °F 68% 30.34 in 10.0 mi NNE 19.6 mph 25.3 mph N/A   Scattered Clouds
11:15 AM 68.0 °F 55.4 °F 64% 30.34 in 10.0 mi NNE 17.3 mph 24.2 mph N/A   Scattered Clouds
11:35 AM 68.0 °F 57.2 °F 68% 30.34 in 10.0 mi NNE 18.4 mph 25.3 mph N/A   Scattered Clouds
11:55 AM 68.0 °F 57.2 °F 68% 30.33 in 10.0 mi NE 16.1 mph 25.3 mph N/A   Scattered Clouds
12:15 PM 68.0 °F 55.4 °F 64% 30.33 in 10.0 mi NE 18.4 mph 26.5 mph N/A   Mostly Cloudy
12:35 PM 68.0 °F 55.4 °F 64% 30.32 in 10.0 mi NE 20.7 mph 28.8 mph N/A   Mostly Cloudy
12:55 PM 68.0 °F 55.4 °F 64% 30.32 in 10.0 mi NE 18.4 mph 25.3 mph N/A   Mostly Cloudy
1:15 PM 66.2 °F 53.6 °F 64% 30.32 in 10.0 mi NE 18.4 mph 26.5 mph N/A   Mostly Cloudy
1:35 PM 68.0 °F 55.4 °F 64% 30.32 in 10.0 mi NE 18.4 mph 27.6 mph N/A   Mostly Cloudy
1:55 PM 68.0 °F 53.6 °F 60% 30.32 in 10.0 mi NE 17.3 mph 33.4 mph N/A   Scattered Clouds
2:15 PM 68.0 °F 53.6 °F 60% 30.32 in 10.0 mi NE 20.7 mph 27.6 mph N/A   Clear
2:35 PM 68.0 °F 53.6 °F 60% 30.31 in 10.0 mi NE 18.4 mph 27.6 mph N/A   Clear
2:55 PM 68.0 °F 53.6 °F 60% 30.32 in 10.0 mi NE 18.4 mph 28.8 mph N/A   Scattered Clouds
3:15 PM 66.2 °F 53.6 °F 64% 30.32 in 10.0 mi NE 15.0 mph 23.0 mph N/A   Mostly Cloudy
3:35 PM 64.4 °F 53.6 °F 68% 30.32 in 10.0 mi NE 18.4 mph 27.6 mph N/A   Scattered Clouds
3:55 PM 64.4 °F 53.6 °F 68% 30.31 in 10.0 mi NE 15.0 mph 26.5 mph N/A   Scattered Clouds
4:15 PM 64.4 °F 53.6 °F 68% 30.31 in 10.0 mi NE 21.9 mph 31.1 mph N/A   Clear
4:35 PM 62.6 °F 51.8 °F 68% 30.31 in 10.0 mi NE 15.0 mph 24.2 mph N/A   Scattered Clouds
4:55 PM 62.6 °F 51.8 °F 68% 30.32 in 10.0 mi NE 17.3 mph 24.2 mph N/A   Scattered Clouds
5:15 PM 62.6 °F 50.0 °F 63% 30.32 in 10.0 mi NNE 13.8 mph 21.9 mph N/A   Clear
5:35 PM 62.6 °F 50.0 °F 63% 30.33 in 10.0 mi NE 13.8 mph 20.7 mph N/A   Clear
5:55 PM 60.8 °F 50.0 °F 68% 30.33 in 10.0 mi NE 10.4 mph - N/A   Scattered Clouds
6:15 PM 60.8 °F 50.0 °F 68% 30.34 in 10.0 mi NNE 11.5 mph 16.1 mph N/A   Scattered Clouds
6:35 PM 60.8 °F 51.8 °F 72% 30.34 in 10.0 mi NNE 9.2 mph - N/A   Scattered Clouds
6:55 PM 60.8 °F 51.8 °F 72% 30.34 in 10.0 mi NNE 11.5 mph - N/A   Overcast
7:15 PM 60.8 °F 50.0 °F 68% 30.34 in 10.0 mi NE 10.4 mph - N/A   Overcast
7:35 PM 62.6 °F 51.8 °F 68% 30.34 in 10.0 mi NNE 10.4 mph 16.1 mph N/A   Overcast
7:55 PM 62.6 °F 51.8 °F 68% 30.34 in 10.0 mi NE 13.8 mph 17.3 mph N/A   Overcast
8:15 PM 62.6 °F 50.0 °F 63% 30.34 in 10.0 mi NE 13.8 mph 21.9 mph N/A   Overcast
8:35 PM 62.6 °F 51.8 °F 68% 30.35 in 10.0 mi NE 13.8 mph 23.0 mph N/A   Overcast
8:55 PM 62.6 °F 53.6 °F 72% 30.34 in 10.0 mi NE 15.0 mph - N/A   Overcast
9:15 PM 62.6 °F 53.6 °F 72% 30.34 in 10.0 mi NNE 13.8 mph 18.4 mph N/A   Overcast
9:35 PM 62.6 °F 55.4 °F 77% 30.34 in 10.0 mi NNE 13.8 mph 20.7 mph N/A   Overcast
9:55 PM 62.6 °F 55.4 °F 77% 30.34 in 10.0 mi NE 17.3 mph 23.0 mph N/A   Overcast
10:15 PM 62.6 °F 55.4 °F 77% 30.34 in 10.0 mi NE 16.1 mph 19.6 mph N/A   Overcast
10:35 PM 60.8 °F 51.8 °F 72% 30.34 in 10.0 mi North 5.8 mph 19.6 mph N/A   Overcast
10:55 PM 59.0 °F 50.0 °F 72% 30.34 in 10.0 mi North 8.1 mph - N/A   Overcast
11:15 PM 59.0 °F 50.0 °F 72% 30.34 in 10.0 mi NNW 5.8 mph - N/A   Overcast
11:35 PM 59.0 °F 50.0 °F 72% 30.34 in 10.0 mi North 8.1 mph - N/A   Overcast
11:55 PM 59.0 °F 50.0 °F 72% 30.33 in 10.0 mi North 9.2 mph - N/A   Overcast